Find Local Weather

World > North America > United States > Virginia

Alexandria, Virginia Regional Weather

Lat: 38.82N, Lon: 77.09W
Wx Zone: VAZ054
Warning FLW WEATHER ALERT - (More Info. Click Here) Warning
Feedback
Expires:201809251500;;189097
ASUS41 KAKQ 251415
RWRAKQ

REGIONAL WEATHER ROUNDUP
NATIONAL WEATHER SERVICE WAKEFIELD VA
1000 AM EDT TUE SEP 25 2018

Note: "fair" indicates few or no clouds below 12,000 feet with no
significant weather and/or obstructions to visibility. * = Denotes
station may not report precipitation (e.g., rain,snow,etc.),
thunder or fog.


VAZ042-051-052>054-056-251500-
NORTHERN VIRGINIA
  
CITY           SKY/WX    TMP DP  RH WIND       PRES   REMARKS
WASH NATIONAL  LGT RAIN  73  70  90 CALM      30.25S FOG              
DULLES         LGT RAIN  69  69 100 SE3       30.25S FOG              
FORT BELVOIR   CLOUDY    72  70  94 E3        30.24F                  
QUANTICO       LGT RAIN  71  71 100 SW3       30.26R FOG              
FREDERICKSBRG* CLOUDY    62  62 100 SE3       30.24S                  
STAFFORD*      FOG       72  72 100 CALM      30.29R VSB 3/4          
WARRENTON      CLOUDY    71  67  90 CALM      30.25S FOG              
CULPEPER*      LGT RAIN  68  67  94 CALM      30.27R                  
MANASSAS*      CLOUDY    70  70 100 W5        30.25S FOG              
LEESBURG*      CLOUDY    61  61 100 CALM      30.26S FOG              
WINCHESTER     DRIZZLE   61  61 100 CALM      30.27S                  
FRONT ROYAL*   CLOUDY   N/A N/A N/A CALM      30.25S                  
LURAY*         RAIN      64  63  94 CALM      30.26S                  
$$


SKY/WX - Weather  TMP - Temperature  DP - Dew Point  RH - Relative Humidity
WIND - Wind Direction/Speed PRES - Barometric Pressure